Hourly Data Report for October 01, 2015

All times are specified in Local Standard Time (LST). Add 1 hour to adjust for Daylight Saving Time where and when it is observed.

RANKIN INLET A
NUNAVUT

62°48'38.000" N
92°06'53.000" W
32.30 m
2303405
71083
YRT

Download Data

Hourly Data (October 2015)
Hourly Data Report for October 1, 2015
Temp Definition
°C
Dew Point Temp Definition
°C
Rel Hum Definition
%
Wind Dir Definition
10's deg

Wind Spd Definition
km/h
Visibility Definition
km
Stn Press Definition
kPa
Hmdx Definition


Wind Chill Definition


Weather Definition


TIME
00:00 Legend Double Dagger 4.3 1.5 82 19 41 24.1 101.61     Mainly Clear
01:00 Legend Double Dagger 4.6 2.0 83 19 37 24.1 101.54     LegendNANA
02:00 Legend Double Dagger 4.7 2.2 84 19 42 24.1 101.46     LegendNANA
03:00 Legend Double Dagger 5.0 2.4 83 20 39 24.1 101.41     Mainly Clear
04:00 Legend Double Dagger 5.1 2.6 84 20 43 24.1 101.36     LegendNANA
05:00 Legend Double Dagger 5.1 2.8 85 20 42 24.1 101.31     LegendNANA
06:00 Legend Double Dagger 5.1 3.0 86 19 37 24.1 101.25     Mostly Cloudy
07:00 Legend Double Dagger 5.2 3.1 86 20 35 24.1 101.19     LegendNANA
08:00 Legend Double Dagger 5.3 3.3 87 20 39 24.1 101.23     LegendNANA
09:00 Legend Double Dagger 6.1 3.4 83 21 37 24.1 101.21     Mainly Clear
10:00 Legend Double Dagger 7.1 4.1 81 21 33 24.1 101.18     LegendNANA
11:00 Legend Double Dagger 8.0 4.6 79 21 27 24.1 101.14     LegendNANA
12:00 Legend Double Dagger 8.3 4.7 78 22 31 24.1 101.13     Mainly Clear
13:00 Legend Double Dagger 9.6 5.4 75 22 25 24.1 101.11     LegendNANA
14:00 Legend Double Dagger 11.0 6.2 72 23 22 24.1 101.12     LegendNANA
15:00 Legend Double Dagger 12.6 6.9 68 25 14 24.1 101.23     Mainly Clear
16:00 Legend Double Dagger 12.7 7.0 68 28 11 24.1 101.34     LegendNANA
17:00 Legend Double Dagger 12.2 7.3 72 30 14 24.1 101.44     LegendNANA
18:00 Legend Double Dagger 10.3 6.5 77 31 21 24.1 101.58     Clear
19:00 Legend Double Dagger 7.7 5.4 85 33 20 24.1 101.71     LegendNANA
20:00 Legend Double Dagger 6.2 4.7 90 34 24 24.1 101.85     LegendNANA
21:00 Legend Double Dagger 5.8 4.3 90 36 35 24.1 101.92     Clear
22:00 Legend Double Dagger 4.7 3.4 91 1 28 24.1 102.07     LegendNANA
23:00 Legend Double Dagger 4.0 2.7 91 1 26 24.1 102.19     LegendNANA

Notes on Data Quality.

Legend

  • E = Estimated
  • M = Missing
  • NA = Not Available
  • ‡ = Partner data that is not subject to review by the National Climate Archives
Date modified: